Location: NJAA Observatory
(40.6819°N, 74.8979°W)
Time: 11:20:19
(UTC-04:00)

Landsat 5 - Visible Passes

Search period start: 23 August 2014 00:00
Search period end: 02 September 2014 00:00
Orbit: 536 x 667 km, 98.1° (Epoch: 23 August)

Date Brightness Start Highest point End Pass type
(mag) Time Alt. Az. Time Alt. Az. Time Alt. Az.
23 Aug 5.9 22:02:48 12° NE 22:02:48 12° NE 22:03:35 10° NE visible
23 Aug 6.0 23:39:35 21° NNW 23:39:35 21° NNW 23:41:05 10° NNW visible
24 Aug 5.8 22:14:36 14° NE 22:14:36 14° NE 22:15:52 10° NNE visible
24 Aug 6.2 23:51:23 17° NNW 23:51:23 17° NNW 23:52:34 10° NNW visible
25 Aug 5.7 22:26:24 17° NNE 22:26:24 17° NNE 22:27:55 10° NNE visible
26 Aug 6.4 00:03:11 14° NW 00:03:11 14° NW 00:03:59 10° NNW visible
26 Aug 5.7 22:38:12 19° NNE 22:38:12 19° NNE 22:39:49 10° N visible
27 Aug 6.6 00:14:59 12° NW 00:14:59 12° NW 00:15:18 10° NW visible
27 Aug 5.7 22:50:00 20° NNE 22:50:00 20° NNE 22:51:37 10° N visible
28 Aug 5.8 23:01:48 21° N 23:01:48 21° N 23:03:22 10° N visible
29 Aug 6.0 23:13:37 20° N 23:13:37 20° N 23:15:03 10° N visible
30 Aug 6.1 23:25:25 19° NNW 23:25:25 19° NNW 23:26:40 10° NNW visible
31 Aug 6.2 22:00:26 10° NE 22:00:26 10° NE 22:00:33 10° NE visible
31 Aug 6.3 23:37:13 17° NNW 23:37:13 17° NNW 23:38:14 10° NNW visible
01 Sep 6.1 22:12:15 12° NNE 22:12:15 12° NNE 22:12:53 10° NNE visible
01 Sep 6.5 23:49:02 14° NNW 23:49:02 14° NNW 23:49:45 10° NNW visible
